Погода в Гуаякиле

Эквадор     2˚11′21″S   79˚53′22″W
темп.,
°C
ветер,
м/с
пор.,
м/с
влажн.,
%
обл.,
%
осадки,
мм/ч
давл.,
гПа
погр.,
м
17 января, вс
вс1701:00+23˚з2492100 10.8 1013227
04:00+23˚ююз1391100 3.4 1012175
07:00+23˚зсз1290100 3.5 1013168
10:00+28˚сз117055 0.1 1013732
13:00+31˚сз225967 0.6 10111153
16:00+29˚юз236998 7.0 1008909
19:00+26˚юз378297 11.4 1011366
22:00+24˚зюз2785100 0.3 1013441
18 января, пн
пн1801:00+24˚зюз2588100 0.3 1013360
04:00+23˚зсз2389100 0.6 1012243
07:00+23˚ссв1191100 1.3 1013167
10:00+24˚св1288100 0.3 1014296
13:00+27˚в127499 0.4 1012679
16:00+28˚всв117078 2.3 1009764
19:00+25˚ююв128685 7.2 101180
22:00+24˚юз2588100 1.9 1014229
19 января, вт
вт1901:00+23˚зюз2489100 3.5 1013234
04:00+23˚з1390100 2.1 1012207
07:00+23˚зсз1290100 2.4 1013165
10:00+24˚сз1289100 0.2 1014240
13:00+28˚зсз226993 0.3 1011785
16:00+28˚юз226771 1.2 1009957
19:00+25˚ю248368 3.1 1010193
22:00+24˚юз258498 0.3 1013263
20 января, ср
ср2001:00+24˚зюз248694 0.3 1012214
04:00+23˚юз138983 0.2 1011155
07:00+23˚ю249290 0.9 1012232
10:00+24˚ю1285100 0.1 1013385
13:00+28˚зюз236797 0.1 1011879
16:00+28˚з246681 0.2 1009826
19:00+26˚юз257688 0.6 1011237
22:00+24˚ююз2682100 0.0 1013369
21 января, чт
чт2101:00+24˚юз2586100 0.1 1012352
04:00+23˚юз138887 0.3 1012223
07:00+23˚з128793 0.3 1013134
10:00+27˚зсз226886 0.0 1014815
13:00+30˚сз225983 0.1 10111022
16:00+30˚з345750 0.2 10091150
19:00+26˚юз256666 0.4 1010236
22:00+24˚юз367686 0.0 1013458